[[{"header":{"parameterUnit":"m.s-1","parameterCategory":1,"la1":30.2991,"la2":30.254,"lo1":-89.0895,"lo2":-89.0444,"dy":0.0017,"dx":0.0017,"nx":28,"ny":28,"refTime":"2023-06-28T21:00:00:Z","depth":0,"parameterNumber":2,"parameterNumberName":"U-component_of_WINDS"},"data":[0,0,0,0,0,0,0,0,0,0,0,0,0,0,0,0,0,0,0,0,0,0,0,0,0,0,0,0,0,0,0,0,0,0,0,0,0,0,0,0,0,0,0,0,0,0,0,0,0,0,0,0,0,0,0,0,0,0,1.8275,1.8275,0,1.8238,1.8238,1.8237,1.8146,1.8144,1.8142,1.814,1.8106,1.8107,1.8108,0,0,0,0,0,0,0,0,0,0,0,0,0,1.8273,1.8273,1.8275,1.8275,1.8274,1.8238,1.8238,1.8237,1.8146,1.8144,1.8141,1.8139,1.8105,1.8107,1.8108,0,0,0,0,0,0,0,0,0,0,0,0,0,1.8259,1.8273,1.8275,1.8224,1.822,1.8238,1.8238,1.8237,1.8146,1.8144,1.8141,1.8138,1.8105,1.8106,1.8108,1.8174,0,0,1.8112,1.8112,0,0,0,0,0,0,0,0,1.8259,1.8259,1.8232,1.8228,1.8222,1.8193,1.8224,1.8216,1.8147,1.8174,1.814,1.8137,1.8138,1.8136,1.8136,1.8173,1.8171,1.8112,1.8113,1.8113,1.8114,0,0,0,0,0,0,0,1.8261,1.826,1.8261,1.8232,1.8226,1.8205,1.82,1.8222,1.8173,1.8172,1.8165,1.8162,1.8134,1.8134,1.8134,1.8171,1.8112,1.8113,1.8114,1.8114,1.8263,1.8266,0,0,0,0,0,0,1.8268,1.8261,1.8262,1.826,1.8234,1.8208,1.8202,1.8206,1.8172,1.8164,1.8164,1.8158,1.8134,1.8133,1.8133,1.821,1.8113,1.8115,1.8115,1.826,1.8264,1.8267,0,0,0,0,0,0,1.8269,1.8269,1.8263,1.8259,1.8256,1.8211,1.8216,1.8207,1.8207,1.8166,1.8158,1.8173,1.8131,1.8131,1.8165,1.8208,1.8115,1.8116,1.8256,1.8261,1.8265,1.8365,0,0,0,0,0,0,1.8269,1.827,1.8293,1.826,1.8257,1.8295,1.8219,1.8208,1.8209,1.82,1.8173,1.8165,1.8129,1.8163,1.8166,1.8208,1.8117,1.8252,1.8258,1.8264,1.8358,1.8372,1.8385,0,0,0,0,0,1.8269,1.8323,1.8295,1.8296,1.8285,1.8298,1.8296,1.8252,1.8212,1.8237,1.8211,1.8166,1.8202,1.8168,1.817,1.8213,1.8249,1.8257,1.8264,1.8351,1.8369,1.8385,0,0,0,0,0,0,1.8364,1.8318,1.8286,1.833,1.8319,1.8282,1.8311,1.8272,1.8272,1.8264,1.821,1.8205,1.8248,1.8233,1.8195,1.8277,1.8219,1.8227,1.8285,1.8301,1.8315,1.8318,1.8119,0,0,0,0,0,1.839,1.8402,1.8362,1.8405,1.8401,1.8358,1.8361,1.8328,1.8314,1.8309,1.8286,1.8276,1.8285,1.8292,1.8298,1.8355,1.8349,1.8385,1.8399,1.841,1.8419,1.845,1.8467,1.829,1.829,1.829,0,0,1.8444,1.842,1.8432,1.8424,1.8411,1.8427,1.8354,1.8374,1.8386,1.8313,1.8344,1.8327,1.8312,1.8358,1.8377,1.8348,1.8466,1.8419,1.8429,1.8431,1.8459,1.8476,1.8491,1.8295,1.8294,1.8294,0,0,1.8551,1.8533,1.8569,1.8557,1.8538,1.8509,1.8518,1.8487,1.8473,1.8503,1.8449,1.8464,1.848,1.8472,1.847,1.8576,1.8536,1.858,1.8652,1.8684,1.8697,1.871,1.875,1.8765,1.8587,1.8588,1.8588,0,1.8621,1.8642,1.8592,1.8616,1.8615,1.8548,1.8585,1.8577,1.8562,1.8563,1.8529,1.855,1.8534,1.858,1.8606,1.8605,1.8616,1.8583,1.8699,1.8711,1.8721,1.8759,1.8775,1.8593,1.8593,1.8592,1.8591,0,1.8731,1.8746,1.8777,1.8763,1.8766,1.8796,1.8753,1.8761,1.8729,1.8704,1.8737,1.8716,1.8718,1.8726,1.8694,1.8768,1.875,1.8708,1.8649,1.8745,1.878,1.8794,1.8601,1.8599,1.8598,1.8596,0,0,1.8897,1.8856,1.8868,1.8862,1.8837,1.8849,1.8877,1.8877,1.8887,1.8879,1.8903,1.8919,1.8881,1.8879,1.8846,1.8873,1.8962,1.8828,1.8827,1.8856,1.9044,1.9078,1.9095,1.8934,1.8936,1.8938,1.9047,0,1.9,1.9045,1.9001,1.9055,1.9071,1.9008,1.9033,1.9021,1.8999,1.901,1.8986,1.8999,1.8946,1.8945,1.8969,1.8946,1.8999,1.8937,1.8958,1.896,1.8966,1.9113,1.9147,1.925,1.906,1.9062,1.9063,0,1.9126,1.9124,1.9179,1.9152,1.9157,1.918,1.9178,1.9188,1.9175,1.9157,1.9156,1.9115,1.9143,1.9084,1.9124,1.9082,1.9088,1.9078,1.9081,1.9083,1.9019,1.9121,1.9282,1.9298,1.9084,1.9082,1.9081,0,1.9246,1.9256,1.9291,1.9287,1.9256,1.9274,1.9262,1.9245,1.9249,1.9248,1.925,1.9253,1.9255,1.9259,1.9221,1.9181,1.9266,1.9203,1.9255,1.9256,1.9277,1.9277,1.9443,1.9277,1.9277,1.9277,1.9276,0,1.9366,1.9404,1.9344,1.9366,1.9407,1.9357,1.9399,1.9381,1.9367,1.9386,1.9331,1.9351,1.9298,1.9313,1.9283,1.9322,1.9323,1.9311,1.9303,1.9317,1.9319,1.9322,1.9315,1.9281,1.928,1.9279,1.9278,0,1.9507,1.9469,1.9503,1.947,1.9463,1.9495,1.9468,1.9488,1.9462,1.9487,1.949,1.9451,1.9465,1.9427,1.9435,1.9416,1.9472,1.9452,1.9477,1.9472,1.9526,1.9523,1.9702,1.9725,1.9542,1.9544,1.9545,0,1.9588,1.9615,1.9586,1.9594,1.9585,1.9598,1.9602,1.9554,1.9561,1.9548,1.9571,1.958,1.9586,1.9612,1.9585,1.9592,1.9573,1.9635,1.9574,1.9588,1.9577,1.9577,1.9581,1.9649,1.9651,1.9653,1.9654,0,1.9737,1.9717,1.9723,1.9724,1.973,1.9729,1.9724,1.9734,1.9683,1.9694,1.9707,1.9711,1.972,1.9731,1.9732,1.9722,1.9682,1.9674,1.9686,1.9702,1.9717,1.9713,1.9515,1.967,1.9669,1.9668,1.9667,1.9666,1.9852,1.9874,1.9857,1.9867,1.9858,1.9855,1.9873,1.9849,1.9859,1.9862,1.9834,1.9854,1.9842,1.9839,1.9833,1.9849,1.9821,1.9839,1.9843,1.9849,1.986,1.9712,1.9849,1.9848,1.9848,1.9847,1.9847,0,2.0,1.9986,1.9996,1.999,1.9999,1.9958,1.995,1.9961,1.9979,1.997,1.9976,1.9993,2.0004,1.9978,1.9986,2.0004,1.9986,2.0008,2.0008,2.0007,1.9883,1.9873,2.0023,2.0023,2.0023,2.0023,2.0023,2.0023,2.0079,2.0115,2.0093,2.0125,2.0111,2.0129,2.0129,2.0127,2.012,2.0141,2.0149,2.0132,2.0117,2.0123,2.0132,2.0124,2.0131,2.016,2.0147,2.0032,2.0015,1.9999,1.9989,2.0161,2.0162,2.0269,2.027,2.0271]},{"header":{"parameterUnit":"m.s-1","parameterCategory":1,"la1":30.2991,"la2":30.254,"lo1":-89.0895,"lo2":-89.0444,"dy":0.0017,"dx":0.0017,"nx":28,"ny":28,"refTime":"2023-06-28T21:00:00:Z","depth":0,"parameterNumber":3,"parameterNumberName":"V-component_of_WINDS"},"data":[0,0,0,0,0,0,0,0,0,0,0,0,0,0,0,0,0,0,0,0,0,0,0,0,0,0,0,0,0,0,0,0,0,0,0,0,0,0,0,0,0,0,0,0,0,0,0,0,0,0,0,0,0,0,0,0,0,0,-0.4359,-0.4357,0,-0.4139,-0.4136,-0.4134,-0.4098,-0.41,-0.4102,-0.4104,-0.3874,-0.3866,-0.3858,0,0,0,0,0,0,0,0,0,0,0,0,0,-0.475,-0.4743,-0.436,-0.4357,-0.4354,-0.4139,-0.4136,-0.4133,-0.4097,-0.41,-0.4102,-0.4104,-0.3876,-0.3867,-0.3858,0,0,0,0,0,0,0,0,0,0,0,0,0,-0.456,-0.4741,-0.436,-0.4311,-0.4304,-0.414,-0.4136,-0.4132,-0.4097,-0.41,-0.4103,-0.4106,-0.388,-0.3868,-0.3856,-0.3725,0,0,-0.382,-0.3815,0,0,0,0,0,0,0,0,-0.4571,-0.4546,-0.4321,-0.4314,-0.4306,-0.4149,-0.4189,-0.3995,-0.4096,-0.4175,-0.4104,-0.4107,-0.3963,-0.3944,-0.3896,-0.3714,-0.3704,-0.3819,-0.3812,-0.3807,-0.3803,0,0,0,0,0,0,0,-0.4584,-0.4555,-0.4272,-0.4317,-0.4308,-0.4299,-0.4275,-0.4153,-0.4055,-0.4169,-0.4166,-0.414,-0.3959,-0.3908,-0.3891,-0.3701,-0.3819,-0.3809,-0.3801,-0.3797,-0.3404,-0.3401,0,0,0,0,0,0,-0.4607,-0.4566,-0.4279,-0.4265,-0.4449,-0.429,-0.4263,-0.4196,-0.4057,-0.4038,-0.4138,-0.4139,-0.3927,-0.3905,-0.3882,-0.3722,-0.3807,-0.3796,-0.3789,-0.3407,-0.3403,-0.34,0,0,0,0,0,0,-0.4615,-0.4581,-0.4288,-0.4415,-0.4377,-0.428,-0.4205,-0.419,-0.4139,-0.4033,-0.4016,-0.4103,-0.3928,-0.3899,-0.3765,-0.3714,-0.379,-0.3779,-0.3411,-0.3406,-0.3401,-0.3399,0,0,0,0,0,0,-0.4627,-0.4585,-0.4533,-0.4414,-0.437,-0.4175,-0.4202,-0.4184,-0.4119,-0.4119,-0.3996,-0.3979,-0.3928,-0.3783,-0.3754,-0.3699,-0.377,-0.3415,-0.3409,-0.3403,-0.3404,-0.3395,-0.3387,0,0,0,0,0,-0.4641,-0.454,-0.4531,-0.4497,-0.4305,-0.4172,-0.4147,-0.4092,-0.4115,-0.4063,-0.3996,-0.3983,-0.3724,-0.377,-0.3736,-0.3677,-0.3418,-0.3411,-0.3403,-0.3407,-0.3397,-0.3388,0,0,0,0,0,0,-0.4653,-0.4523,-0.4512,-0.437,-0.4283,-0.4166,-0.4099,-0.4082,-0.3985,-0.3988,-0.3923,-0.3896,-0.3767,-0.3708,-0.3761,-0.3544,-0.3573,-0.3559,-0.3588,-0.3576,-0.3569,-0.3586,-0.376,0,0,0,0,0,-0.464,-0.4544,-0.4435,-0.432,-0.4277,-0.4196,-0.4136,-0.4102,-0.4008,-0.397,-0.3893,-0.3802,-0.3701,-0.3635,-0.3536,-0.3395,-0.3369,-0.3338,-0.333,-0.3324,-0.3312,-0.3237,-0.3223,-0.3375,-0.3375,-0.3375,0,0,-0.4611,-0.4528,-0.4471,-0.4321,-0.4249,-0.4152,-0.4165,-0.4059,-0.3987,-0.3954,-0.3824,-0.3765,-0.3659,-0.3522,-0.3458,-0.347,-0.3265,-0.3314,-0.331,-0.3302,-0.3228,-0.3214,-0.3201,-0.337,-0.3371,-0.3372,0,0,-0.4508,-0.4435,-0.4333,-0.4262,-0.4154,-0.4101,-0.4077,-0.3964,-0.3924,-0.3793,-0.3768,-0.368,-0.3505,-0.3432,-0.3372,-0.3247,-0.3232,-0.3216,-0.3174,-0.3102,-0.309,-0.3079,-0.3037,-0.3022,-0.3205,-0.3205,-0.3205,0,-0.4485,-0.4338,-0.4283,-0.418,-0.4116,-0.4084,-0.3981,-0.3914,-0.3779,-0.3736,-0.3751,-0.3535,-0.346,-0.3308,-0.3278,-0.323,-0.3202,-0.323,-0.3096,-0.3085,-0.3073,-0.3033,-0.3017,-0.3204,-0.3204,-0.3204,-0.3204,0,-0.4316,-0.4214,-0.4145,-0.4018,-0.3946,-0.3844,-0.3774,-0.3707,-0.368,-0.3626,-0.3495,-0.3406,-0.329,-0.3251,-0.3222,-0.3095,-0.3106,-0.3109,-0.3137,-0.3059,-0.302,-0.3003,-0.3202,-0.3203,-0.3203,-0.3203,0,0,-0.4214,-0.4061,-0.4037,-0.398,-0.3861,-0.3781,-0.3678,-0.3566,-0.3512,-0.342,-0.3334,-0.3189,-0.3193,-0.3125,-0.3088,-0.3024,-0.2934,-0.3035,-0.3032,-0.3022,-0.2793,-0.2793,-0.2776,-0.2924,-0.292,-0.2918,-0.2803,0,-0.4099,-0.3916,-0.3865,-0.3711,-0.3618,-0.3588,-0.3498,-0.3416,-0.3363,-0.3277,-0.3218,-0.3118,-0.3128,-0.3088,-0.3023,-0.2959,-0.2888,-0.2966,-0.2843,-0.284,-0.2873,-0.2754,-0.2753,-0.2649,-0.2787,-0.2784,-0.2782,0,-0.394,-0.3849,-0.3686,-0.3582,-0.3541,-0.3462,-0.3358,-0.3275,-0.3181,-0.3148,-0.3074,-0.3044,-0.2937,-0.297,-0.2823,-0.2878,-0.2825,-0.2786,-0.278,-0.2768,-0.2807,-0.2741,-0.2614,-0.2599,-0.2757,-0.2759,-0.276,0,-0.3886,-0.3722,-0.3604,-0.3556,-0.3431,-0.3377,-0.3322,-0.3232,-0.3169,-0.3078,-0.3037,-0.2933,-0.2877,-0.2798,-0.2741,-0.277,-0.26,-0.2628,-0.2571,-0.2572,-0.2536,-0.254,-0.2401,-0.2499,-0.25,-0.25,-0.25,0,-0.3764,-0.3666,-0.3578,-0.3506,-0.3396,-0.3339,-0.3232,-0.3176,-0.3097,-0.3014,-0.298,-0.2903,-0.2832,-0.2745,-0.2699,-0.2587,-0.256,-0.2531,-0.2521,-0.2535,-0.2539,-0.25,-0.2507,-0.2496,-0.2497,-0.2497,-0.2498,0,-0.3685,-0.3622,-0.3492,-0.3386,-0.3357,-0.3281,-0.319,-0.3119,-0.3067,-0.2962,-0.2934,-0.2852,-0.2749,-0.2684,-0.2552,-0.2522,-0.2398,-0.2389,-0.2431,-0.2426,-0.2373,-0.238,-0.2206,-0.2182,-0.2295,-0.2294,-0.2293,0,-0.3612,-0.3536,-0.3423,-0.3366,-0.3312,-0.322,-0.3157,-0.3098,-0.3034,-0.2925,-0.2867,-0.2763,-0.2676,-0.2513,-0.2441,-0.2341,-0.233,-0.2276,-0.2315,-0.2333,-0.2332,-0.2339,-0.2332,-0.227,-0.2269,-0.2268,-0.2268,0,-0.3491,-0.3464,-0.3375,-0.3277,-0.3203,-0.3122,-0.304,-0.2996,-0.2923,-0.2853,-0.2749,-0.2682,-0.2549,-0.2446,-0.2341,-0.2284,-0.2265,-0.2257,-0.2238,-0.2253,-0.2282,-0.2269,-0.2416,-0.2261,-0.2261,-0.2262,-0.2262,-0.2263,-0.3414,-0.3347,-0.3258,-0.3161,-0.3095,-0.3021,-0.295,-0.2891,-0.2803,-0.2691,-0.2662,-0.2553,-0.2465,-0.2321,-0.2263,-0.2178,-0.2185,-0.2158,-0.2152,-0.2146,-0.2147,-0.2295,-0.2158,-0.2158,-0.2158,-0.2158,-0.2158,0,-0.3293,-0.3236,-0.3147,-0.3036,-0.2961,-0.295,-0.2861,-0.2799,-0.2704,-0.2623,-0.254,-0.2421,-0.2322,-0.2244,-0.2143,-0.209,-0.2078,-0.2065,-0.2069,-0.2057,-0.2145,-0.2172,-0.2076,-0.2076,-0.2076,-0.2076,-0.2076,-0.2076,-0.3222,-0.3109,-0.3073,-0.2928,-0.287,-0.2765,-0.2716,-0.2648,-0.2584,-0.2454,-0.2372,-0.2323,-0.2243,-0.2137,-0.2046,-0.2026,-0.1991,-0.198,-0.1958,-0.2042,-0.2051,-0.2059,-0.2085,-0.1972,-0.1972,-0.1878,-0.1878,-0.1877]}]]